Year,Month,Day,Hour,Minute,Value (Times are PST for temperature in C)
2014,01,12,10,11,6.20
2014,01,12,10,12,6.10
2014,01,12,10,13,6.10
2014,01,12,10,14,6.10
2014,01,12,10,15,6.10
2014,01,12,10,16,6.10
2014,01,12,10,17,6.10
2014,01,12,10,18,6.10
2014,01,12,10,19,6.10
2014,01,12,10,20,6.10
2014,01,12,10,21,6.10
2014,01,12,10,22,6.20
2014,01,12,10,23,6.20
2014,01,12,10,24,6.20
2014,01,12,10,25,6.20
2014,01,12,10,26,6.20
2014,01,12,10,27,6.20
2014,01,12,10,28,6.20
2014,01,12,10,29,6.20
2014,01,12,10,30,6.20
2014,01,12,10,31,6.20
2014,01,12,10,32,6.20
2014,01,12,10,33,6.20
2014,01,12,10,34,6.20
2014,01,12,10,35,6.20
2014,01,12,10,36,6.20
2014,01,12,10,37,6.20
2014,01,12,10,38,6.30
2014,01,12,10,39,6.30
2014,01,12,10,40,6.30
2014,01,12,10,41,6.30
2014,01,12,10,42,6.30
2014,01,12,10,43,6.30
2014,01,12,10,44,6.30
2014,01,12,10,45,6.30
2014,01,12,10,46,6.30
2014,01,12,10,47,6.30
2014,01,12,10,48,6.30
2014,01,12,10,49,6.30
2014,01,12,10,50,6.30
2014,01,12,10,51,6.30
2014,01,12,10,52,6.30
2014,01,12,10,53,6.30
2014,01,12,10,54,6.30
2014,01,12,10,55,6.30
2014,01,12,10,56,6.30
2014,01,12,10,57,6.30
2014,01,12,10,58,6.30
2014,01,12,10,59,6.30
2014,01,12,11,00,6.40
2014,01,12,11,01,6.40
2014,01,12,11,02,6.40
2014,01,12,11,03,6.40
2014,01,12,11,04,6.40
2014,01,12,11,05,6.40
2014,01,12,11,06,6.40
2014,01,12,11,07,6.40
2014,01,12,11,08,6.40
2014,01,12,11,09,6.40
2014,01,12,11,10,6.40
2014,01,12,11,11,6.40
2014,01,12,11,12,6.40
2014,01,12,11,13,6.40
2014,01,12,11,14,6.40
2014,01,12,11,15,6.30
2014,01,12,11,16,6.30
2014,01,12,11,17,6.30
2014,01,12,11,18,6.30
2014,01,12,11,19,6.30
2014,01,12,11,20,6.30
2014,01,12,11,21,6.30
2014,01,12,11,22,6.30
2014,01,12,11,23,6.30
2014,01,12,11,24,6.30
2014,01,12,11,25,6.30
2014,01,12,11,26,6.30
2014,01,12,11,27,6.30
2014,01,12,11,28,6.30
2014,01,12,11,29,6.30
2014,01,12,11,30,6.30
2014,01,12,11,31,6.30
2014,01,12,11,32,6.30
2014,01,12,11,33,6.30
2014,01,12,11,34,6.30
2014,01,12,11,35,6.30
2014,01,12,11,36,6.30
2014,01,12,11,37,6.30
2014,01,12,11,38,6.30
2014,01,12,11,39,6.30
2014,01,12,11,40,6.30
2014,01,12,11,41,6.30
2014,01,12,11,42,6.30
2014,01,12,11,43,6.30
2014,01,12,11,44,6.30
2014,01,12,11,45,6.30
2014,01,12,11,46,6.30
2014,01,12,11,47,6.40
2014,01,12,11,48,6.40
2014,01,12,11,49,6.40
2014,01,12,11,50,6.40
2014,01,12,11,51,6.40
2014,01,12,11,52,6.40
2014,01,12,11,53,6.40
2014,01,12,11,54,6.40
2014,01,12,11,55,6.40
2014,01,12,11,56,6.40
2014,01,12,11,57,6.40
2014,01,12,11,58,6.40
2014,01,12,11,59,6.40
2014,01,12,12,00,6.40
2014,01,12,12,01,6.50
2014,01,12,12,02,6.50
2014,01,12,12,03,6.50
2014,01,12,12,04,6.50
2014,01,12,12,05,6.50
2014,01,12,12,06,6.50
2014,01,12,12,07,6.50
2014,01,12,12,08,6.60
2014,01,12,12,09,6.60
2014,01,12,12,10,6.60
2014,01,12,12,11,6.60
2014,01,12,12,12,6.60
2014,01,12,12,13,6.60
2014,01,12,12,14,6.70
2014,01,12,12,15,6.70
2014,01,12,12,16,6.70
2014,01,12,12,17,6.70
2014,01,12,12,18,6.70
2014,01,12,12,19,6.70
2014,01,12,12,20,6.70
2014,01,12,12,21,6.70
2014,01,12,12,22,6.80
2014,01,12,12,23,6.80
2014,01,12,12,24,6.80
2014,01,12,12,25,6.80
2014,01,12,12,26,6.80
2014,01,12,12,27,6.80
2014,01,12,12,28,6.90
2014,01,12,12,29,6.90
2014,01,12,12,30,6.90
2014,01,12,12,31,6.90
2014,01,12,12,32,7.00
2014,01,12,12,33,7.00
2014,01,12,12,34,7.00
2014,01,12,12,35,7.10
2014,01,12,12,36,7.10
2014,01,12,12,37,7.10
2014,01,12,12,38,7.20
2014,01,12,12,39,7.20
2014,01,12,12,40,7.20
2014,01,12,12,41,7.20
2014,01,12,12,42,7.20
2014,01,12,12,43,7.20
2014,01,12,12,44,7.20
2014,01,12,12,45,7.30
2014,01,12,12,46,7.30
2014,01,12,12,47,7.30
2014,01,12,12,48,7.30
2014,01,12,12,49,7.30
2014,01,12,12,50,7.30
2014,01,12,12,51,7.30
2014,01,12,12,52,7.40
2014,01,12,12,53,7.40
2014,01,12,12,54,7.40
2014,01,12,12,55,7.40
2014,01,12,12,56,7.50
2014,01,12,12,57,7.50
2014,01,12,12,58,7.60
2014,01,12,12,59,7.70
2014,01,12,13,00,7.70
2014,01,12,13,01,7.80
2014,01,12,13,02,7.90
2014,01,12,13,03,8.00
2014,01,12,13,04,8.00
2014,01,12,13,05,8.10
2014,01,12,13,06,8.10
2014,01,12,13,07,8.20
2014,01,12,13,08,8.30
2014,01,12,13,09,8.30
2014,01,12,13,10,8.40
2014,01,12,13,11,8.40
2014,01,12,13,12,8.50
2014,01,12,13,13,8.50
2014,01,12,13,14,8.60
2014,01,12,13,15,8.60
2014,01,12,13,16,8.60
2014,01,12,13,17,8.70
2014,01,12,13,18,8.70
2014,01,12,13,19,8.70
2014,01,12,13,20,8.80
2014,01,12,13,21,8.80
2014,01,12,13,22,8.80
2014,01,12,13,23,8.80
2014,01,12,13,24,8.90
2014,01,12,13,25,8.90
2014,01,12,13,26,8.90
2014,01,12,13,27,9.00
2014,01,12,13,28,9.00
2014,01,12,13,29,9.00
2014,01,12,13,30,9.10
2014,01,12,13,31,9.10
2014,01,12,13,32,9.10
2014,01,12,13,33,9.20
2014,01,12,13,34,9.20
2014,01,12,13,35,9.20
2014,01,12,13,36,9.20
2014,01,12,13,37,9.20
2014,01,12,13,38,9.20
2014,01,12,13,39,9.20
2014,01,12,13,40,9.30
2014,01,12,13,41,9.30
2014,01,12,13,42,9.30
2014,01,12,13,43,9.30
2014,01,12,13,44,9.30
2014,01,12,13,45,9.30
2014,01,12,13,46,9.30
2014,01,12,13,47,9.30
2014,01,12,13,48,9.30
2014,01,12,13,49,9.40
2014,01,12,13,50,9.30
2014,01,12,13,51,9.30
2014,01,12,13,52,9.30
2014,01,12,13,53,9.30
2014,01,12,13,54,9.30
2014,01,12,13,55,9.30
2014,01,12,13,56,9.30
2014,01,12,13,57,9.30
2014,01,12,13,58,9.30
2014,01,12,13,59,9.30
2014,01,12,14,00,9.30
2014,01,12,14,01,9.30
2014,01,12,14,02,9.30
2014,01,12,14,03,9.30
2014,01,12,14,04,9.30
2014,01,12,14,05,9.30
2014,01,12,14,06,9.30
2014,01,12,14,07,9.30
2014,01,12,14,08,9.30
2014,01,12,14,09,9.40
2014,01,12,14,10,9.40
2014,01,12,14,11,9.40
2014,01,12,14,12,9.40
2014,01,12,14,13,9.50
2014,01,12,14,14,9.50
2014,01,12,14,15,9.50
2014,01,12,14,16,9.50
2014,01,12,14,17,9.50
2014,01,12,14,18,9.60
2014,01,12,14,19,9.60
2014,01,12,14,20,9.60
2014,01,12,14,21,9.60
2014,01,12,14,22,9.60
2014,01,12,14,23,9.60
2014,01,12,14,24,9.60
2014,01,12,14,25,9.60
2014,01,12,14,26,9.60
2014,01,12,14,27,9.70
2014,01,12,14,28,9.70
2014,01,12,14,29,9.70
2014,01,12,14,30,9.70
2014,01,12,14,31,9.70
2014,01,12,14,32,9.80
2014,01,12,14,33,9.80
2014,01,12,14,34,9.80
2014,01,12,14,35,9.80
2014,01,12,14,36,9.80
2014,01,12,14,37,9.80
2014,01,12,14,38,9.80
2014,01,12,14,39,9.80
2014,01,12,14,40,9.80
2014,01,12,14,41,9.80
2014,01,12,14,42,9.80
2014,01,12,14,43,9.80
2014,01,12,14,44,9.80
2014,01,12,14,45,9.80
2014,01,12,14,46,9.80
2014,01,12,14,47,9.80
2014,01,12,14,48,9.80
2014,01,12,14,49,9.80
2014,01,12,14,50,9.80
2014,01,12,14,51,9.80
2014,01,12,14,52,9.80
2014,01,12,14,53,9.80
2014,01,12,14,54,9.90
2014,01,12,14,55,9.90
2014,01,12,14,56,9.90
2014,01,12,14,57,9.90
2014,01,12,14,58,9.90
2014,01,12,14,59,9.90
2014,01,12,15,00,9.90
2014,01,12,15,01,9.90
2014,01,12,15,02,10.00
2014,01,12,15,03,10.00
2014,01,12,15,04,10.00
2014,01,12,15,05,10.00
2014,01,12,15,06,10.00
2014,01,12,15,07,10.00
2014,01,12,15,08,9.90
2014,01,12,15,09,9.90
2014,01,12,15,10,9.90
2014,01,12,15,11,10.00
2014,01,12,15,12,10.00
2014,01,12,15,13,10.00
2014,01,12,15,14,10.00
2014,01,12,15,15,10.00
2014,01,12,15,16,10.00
2014,01,12,15,17,10.00
2014,01,12,15,18,10.00
2014,01,12,15,19,10.00
2014,01,12,15,20,9.90
2014,01,12,15,21,9.90
2014,01,12,15,22,9.90
2014,01,12,15,23,9.90
2014,01,12,15,24,9.90
2014,01,12,15,25,9.90
2014,01,12,15,26,9.90
2014,01,12,15,27,9.90
2014,01,12,15,28,9.90
2014,01,12,15,29,9.80
2014,01,12,15,30,9.80
2014,01,12,15,31,9.80
2014,01,12,15,32,9.80
2014,01,12,15,33,9.80
2014,01,12,15,34,9.80
2014,01,12,15,35,9.80
2014,01,12,15,36,9.80
2014,01,12,15,37,9.80
2014,01,12,15,38,9.80
2014,01,12,15,39,9.70
2014,01,12,15,40,9.70
2014,01,12,15,41,9.70
2014,01,12,15,42,9.70
2014,01,12,15,43,9.70
2014,01,12,15,44,9.70
2014,01,12,15,45,9.70
2014,01,12,15,46,9.80
2014,01,12,15,47,9.80
2014,01,12,15,48,9.80
2014,01,12,15,49,9.80
2014,01,12,15,50,9.80
2014,01,12,15,51,9.80
2014,01,12,15,52,9.80
2014,01,12,15,53,9.80
2014,01,12,15,54,9.80
2014,01,12,15,55,9.80
2014,01,12,15,56,9.80
2014,01,12,15,57,9.80
2014,01,12,15,58,9.80
2014,01,12,15,59,9.80
2014,01,12,16,00,9.80
2014,01,12,16,01,9.80
2014,01,12,16,02,9.80
2014,01,12,16,03,9.80
2014,01,12,16,04,9.80
2014,01,12,16,05,9.80
2014,01,12,16,06,9.80
2014,01,12,16,07,9.80
2014,01,12,16,08,9.80
2014,01,12,16,09,9.90
2014,01,12,16,10,9.90
2014,01,12,16,11,9.90
2014,01,12,16,12,9.90
2014,01,12,16,13,9.90
2014,01,12,16,14,9.90
2014,01,12,16,15,9.90
2014,01,12,16,16,9.90
2014,01,12,16,17,9.90
2014,01,12,16,18,9.90
2014,01,12,16,19,9.90
2014,01,12,16,20,9.90
2014,01,12,16,21,9.90
2014,01,12,16,22,9.90
2014,01,12,16,23,9.90
2014,01,12,16,24,9.90
2014,01,12,16,25,9.90
2014,01,12,16,26,9.90
2014,01,12,16,27,9.80
2014,01,12,16,28,9.80
2014,01,12,16,29,9.80
2014,01,12,16,30,9.80
2014,01,12,16,31,9.80
2014,01,12,16,32,9.80
2014,01,12,16,33,9.80
2014,01,12,16,34,9.80
2014,01,12,16,35,9.80
2014,01,12,16,36,9.80
2014,01,12,16,37,9.80
2014,01,12,16,38,9.80
2014,01,12,16,39,9.80
2014,01,12,16,40,9.90
2014,01,12,16,41,9.90
2014,01,12,16,42,9.90
2014,01,12,16,43,9.90
2014,01,12,16,44,10.00
2014,01,12,16,45,9.90
2014,01,12,16,46,9.90
2014,01,12,16,47,9.90
2014,01,12,16,48,9.90
2014,01,12,16,49,9.90
2014,01,12,16,50,9.90
2014,01,12,16,51,9.80
2014,01,12,16,52,9.80
2014,01,12,16,53,9.80
2014,01,12,16,54,9.80
2014,01,12,16,55,9.80
2014,01,12,16,56,9.80
2014,01,12,16,57,9.80
2014,01,12,16,58,9.70
2014,01,12,16,59,9.70
2014,01,12,17,00,9.70
2014,01,12,17,01,9.70
2014,01,12,17,02,9.70
2014,01,12,17,03,9.70
2014,01,12,17,04,9.70
2014,01,12,17,05,9.70
2014,01,12,17,06,9.70
2014,01,12,17,07,9.60
2014,01,12,17,08,9.60
2014,01,12,17,09,9.60
2014,01,12,17,10,9.60
2014,01,12,17,11,9.60
2014,01,12,17,12,9.70
2014,01,12,17,13,9.70
2014,01,12,17,14,9.70
2014,01,12,17,15,9.70
2014,01,12,17,16,9.70
2014,01,12,17,17,9.70
2014,01,12,17,18,9.70
2014,01,12,17,19,9.70
2014,01,12,17,20,9.70
2014,01,12,17,21,9.70
2014,01,12,17,22,9.70
2014,01,12,17,23,9.70
2014,01,12,17,24,9.70
2014,01,12,17,25,9.70
2014,01,12,17,26,9.70
2014,01,12,17,27,9.80
2014,01,12,17,28,9.80
2014,01,12,17,29,9.80
2014,01,12,17,30,9.80
2014,01,12,17,31,9.80
2014,01,12,17,32,9.80
2014,01,12,17,33,9.80
2014,01,12,17,34,9.80
2014,01,12,17,35,9.80
2014,01,12,17,36,9.80
2014,01,12,17,37,9.80
2014,01,12,17,38,9.80
2014,01,12,17,39,9.80
2014,01,12,17,40,9.90
2014,01,12,17,41,9.90
2014,01,12,17,42,9.90
2014,01,12,17,43,9.90
2014,01,12,17,44,9.90
2014,01,12,17,45,9.90
2014,01,12,17,46,9.90
2014,01,12,17,47,9.90
2014,01,12,17,48,9.90
2014,01,12,17,49,9.90
2014,01,12,17,50,9.90
2014,01,12,17,51,9.90
2014,01,12,17,52,9.90
2014,01,12,17,53,9.90
2014,01,12,17,54,9.90
2014,01,12,17,55,9.90
2014,01,12,17,56,9.90
2014,01,12,17,57,9.90
2014,01,12,17,58,9.90
2014,01,12,17,59,9.90
